Year,Month,Day,Hour,Minute,Value (Times are PST for temperature in C)
2018,07,17,00,00,21.80
2018,07,17,00,01,21.70
2018,07,17,00,02,21.50
2018,07,17,00,03,21.40
2018,07,17,00,04,21.30
2018,07,17,00,05,21.20
2018,07,17,00,06,21.10
2018,07,17,00,07,21.10
2018,07,17,00,08,21.00
2018,07,17,00,09,20.90
2018,07,17,00,10,20.90
2018,07,17,00,11,20.80
2018,07,17,00,12,20.80
2018,07,17,00,13,20.70
2018,07,17,00,14,20.70
2018,07,17,00,15,20.60
2018,07,17,00,16,20.60
2018,07,17,00,17,20.60
2018,07,17,00,18,20.50
2018,07,17,00,19,20.50
2018,07,17,00,20,20.50
2018,07,17,00,21,20.50
2018,07,17,00,22,20.50
2018,07,17,00,23,20.50
2018,07,17,00,24,20.50
2018,07,17,00,25,20.50
2018,07,17,00,26,20.50
2018,07,17,00,27,20.60
2018,07,17,00,28,20.70
2018,07,17,00,29,20.70
2018,07,17,00,30,20.80
2018,07,17,00,31,20.80
2018,07,17,00,32,20.90
2018,07,17,00,33,20.90
2018,07,17,00,34,20.90
2018,07,17,00,35,20.90
2018,07,17,00,36,21.00
2018,07,17,00,37,21.00
2018,07,17,00,38,21.00
2018,07,17,00,39,21.00
2018,07,17,00,40,21.00
2018,07,17,00,41,21.00
2018,07,17,00,42,21.00
2018,07,17,00,43,21.00
2018,07,17,00,44,21.00
2018,07,17,00,45,21.10
2018,07,17,00,46,21.10
2018,07,17,00,47,21.00
2018,07,17,00,48,21.00
2018,07,17,00,49,21.00
2018,07,17,00,50,21.00
2018,07,17,00,51,21.00
2018,07,17,00,52,21.00
2018,07,17,00,53,21.00
2018,07,17,00,54,20.90
2018,07,17,00,55,20.90
2018,07,17,00,56,20.90
2018,07,17,00,57,20.90
2018,07,17,00,58,20.90
2018,07,17,00,59,20.80
2018,07,17,01,00,20.80
2018,07,17,01,01,20.80
2018,07,17,01,02,20.70
2018,07,17,01,03,20.70
2018,07,17,01,04,20.70
2018,07,17,01,05,20.70
2018,07,17,01,06,20.60
2018,07,17,01,07,20.60
2018,07,17,01,08,20.60
2018,07,17,01,09,20.50
2018,07,17,01,10,20.50
2018,07,17,01,11,20.50
2018,07,17,01,12,20.40
2018,07,17,01,13,20.40
2018,07,17,01,14,20.40
2018,07,17,01,15,20.40
2018,07,17,01,16,20.40
2018,07,17,01,17,20.30
2018,07,17,01,18,20.30
2018,07,17,01,19,20.30
2018,07,17,01,20,20.30
2018,07,17,01,21,20.30
2018,07,17,01,22,20.30
2018,07,17,01,23,20.30
2018,07,17,01,24,20.30
2018,07,17,01,25,20.30
2018,07,17,01,26,20.20
2018,07,17,01,27,20.20
2018,07,17,01,28,20.20
2018,07,17,01,29,20.20
2018,07,17,01,30,20.20
2018,07,17,01,31,20.20
2018,07,17,01,32,20.20
2018,07,17,01,33,20.20
2018,07,17,01,34,20.10
2018,07,17,01,35,20.10
2018,07,17,01,36,20.10
2018,07,17,01,37,20.10
2018,07,17,01,38,20.10
2018,07,17,01,39,20.00
2018,07,17,01,40,20.00
2018,07,17,01,41,20.00
2018,07,17,01,42,20.00
2018,07,17,01,43,19.90
2018,07,17,01,44,19.90
2018,07,17,01,45,19.90
2018,07,17,01,46,19.90
2018,07,17,01,47,19.90
2018,07,17,01,48,19.80
2018,07,17,01,49,19.80
2018,07,17,01,50,19.80
2018,07,17,01,51,19.80
2018,07,17,01,52,19.80
2018,07,17,01,53,19.80
2018,07,17,01,54,19.80
2018,07,17,01,55,19.70
2018,07,17,01,56,19.70
2018,07,17,01,57,19.70
2018,07,17,01,58,19.70
2018,07,17,01,59,19.70
2018,07,17,02,00,19.60
2018,07,17,02,01,19.60
2018,07,17,02,02,19.60
2018,07,17,02,03,19.60
2018,07,17,02,04,19.50
2018,07,17,02,05,19.50
2018,07,17,02,06,19.50
2018,07,17,02,07,19.50
2018,07,17,02,08,19.40
2018,07,17,02,09,19.40
2018,07,17,02,10,19.40
2018,07,17,02,11,19.40
2018,07,17,02,12,19.30
2018,07,17,02,13,19.30
2018,07,17,02,14,19.30
2018,07,17,02,15,19.20
2018,07,17,02,16,19.20
2018,07,17,02,17,19.20
2018,07,17,02,18,19.10
2018,07,17,02,19,19.10
2018,07,17,02,20,19.00
2018,07,17,02,21,19.00
2018,07,17,02,22,18.90
2018,07,17,02,23,18.90
2018,07,17,02,24,18.80
2018,07,17,02,25,18.80
2018,07,17,02,26,18.80
2018,07,17,02,27,18.80
2018,07,17,02,28,18.70
2018,07,17,02,29,18.70
2018,07,17,02,30,18.70
2018,07,17,02,31,18.60
2018,07,17,02,32,18.60
2018,07,17,02,33,18.60
2018,07,17,02,34,18.60
2018,07,17,02,35,18.60
2018,07,17,02,36,18.60
2018,07,17,02,37,18.60
2018,07,17,02,38,18.60
2018,07,17,02,39,18.60
2018,07,17,02,40,18.60
2018,07,17,02,41,18.60
2018,07,17,02,42,18.60
2018,07,17,02,43,18.60
2018,07,17,02,44,18.60
2018,07,17,02,45,18.60
2018,07,17,02,46,18.60
2018,07,17,02,47,18.70
2018,07,17,02,48,18.70
2018,07,17,02,49,18.70
2018,07,17,02,50,18.70
2018,07,17,02,51,18.70
2018,07,17,02,52,18.70
2018,07,17,02,53,18.70
2018,07,17,02,54,18.70
2018,07,17,02,55,18.70
2018,07,17,02,56,18.70
2018,07,17,02,57,18.70
2018,07,17,02,58,18.70
2018,07,17,02,59,18.70
2018,07,17,03,00,18.70
2018,07,17,03,01,18.70
2018,07,17,03,02,18.70
2018,07,17,03,03,18.60
2018,07,17,03,04,18.60
2018,07,17,03,05,18.60
2018,07,17,03,06,18.60
2018,07,17,03,07,18.60
2018,07,17,03,08,18.50
2018,07,17,03,09,18.50
2018,07,17,03,10,18.50
2018,07,17,03,11,18.40
2018,07,17,03,12,18.40
2018,07,17,03,13,18.40
2018,07,17,03,14,18.40
2018,07,17,03,15,18.30
2018,07,17,03,16,18.30
2018,07,17,03,17,18.30
2018,07,17,03,18,18.30
2018,07,17,03,19,18.20
2018,07,17,03,20,18.20
2018,07,17,03,21,18.20
2018,07,17,03,22,18.20
2018,07,17,03,23,18.20
2018,07,17,03,24,18.20
2018,07,17,03,25,18.10
2018,07,17,03,26,18.10
2018,07,17,03,27,18.10
2018,07,17,03,28,18.10
2018,07,17,03,29,18.10
2018,07,17,03,30,18.10
2018,07,17,03,31,18.10
2018,07,17,03,32,18.00
2018,07,17,03,33,18.00
2018,07,17,03,34,18.00
2018,07,17,03,35,18.00
2018,07,17,03,36,18.00
2018,07,17,03,37,17.90
2018,07,17,03,38,17.90
2018,07,17,03,39,17.90
2018,07,17,03,40,17.90
2018,07,17,03,41,17.80
2018,07,17,03,42,17.80
2018,07,17,03,43,17.80
2018,07,17,03,44,17.80
2018,07,17,03,45,17.80
2018,07,17,03,46,17.80
2018,07,17,03,47,17.80
2018,07,17,03,48,17.80
2018,07,17,03,49,17.80
2018,07,17,03,50,17.70
2018,07,17,03,51,17.70
2018,07,17,03,52,17.70
2018,07,17,03,53,17.70
2018,07,17,03,54,17.70
2018,07,17,03,55,17.70
2018,07,17,03,56,17.70
2018,07,17,03,57,17.70
2018,07,17,03,58,17.70
2018,07,17,03,59,17.70
2018,07,17,04,00,17.70
2018,07,17,04,01,17.70
2018,07,17,04,02,17.70
2018,07,17,04,03,17.70
2018,07,17,04,04,17.70
2018,07,17,04,05,17.70
2018,07,17,04,06,17.70
2018,07,17,04,07,17.70
2018,07,17,04,08,17.70
2018,07,17,04,09,17.70
2018,07,17,04,10,17.60
2018,07,17,04,11,17.60
2018,07,17,04,12,17.60
2018,07,17,04,13,17.60
2018,07,17,04,14,17.60
2018,07,17,04,15,17.60
2018,07,17,04,16,17.60
2018,07,17,04,17,17.60
2018,07,17,04,18,17.60
2018,07,17,04,19,17.60
2018,07,17,04,20,17.60
2018,07,17,04,21,17.50
2018,07,17,04,22,17.50
2018,07,17,04,23,17.50
2018,07,17,04,24,17.50
2018,07,17,04,25,17.50
2018,07,17,04,26,17.50
2018,07,17,04,27,17.40
2018,07,17,04,28,17.40
2018,07,17,04,29,17.40
2018,07,17,04,30,17.40
2018,07,17,04,31,17.40
2018,07,17,04,32,17.40
2018,07,17,04,33,17.30
2018,07,17,04,34,17.30
2018,07,17,04,35,17.30
2018,07,17,04,36,17.30
2018,07,17,04,37,17.30
2018,07,17,04,38,17.30
2018,07,17,04,39,17.30
2018,07,17,04,40,17.20
2018,07,17,04,41,17.20
2018,07,17,04,42,17.20
2018,07,17,04,43,17.20
2018,07,17,04,44,17.10
2018,07,17,04,45,17.10
2018,07,17,04,46,17.00
2018,07,17,04,47,16.90
2018,07,17,04,48,16.80
2018,07,17,04,49,16.70
2018,07,17,04,50,16.60
2018,07,17,04,51,16.50
2018,07,17,04,52,16.40
2018,07,17,04,53,16.30
2018,07,17,04,54,16.20
2018,07,17,04,55,16.10
2018,07,17,04,56,16.00
2018,07,17,04,57,15.90
2018,07,17,04,58,15.80
2018,07,17,04,59,15.80
2018,07,17,05,00,15.70
2018,07,17,05,01,15.70
2018,07,17,05,02,15.60
2018,07,17,05,03,15.50
2018,07,17,05,04,15.50
2018,07,17,05,05,15.40
2018,07,17,05,06,15.40
2018,07,17,05,07,15.40
2018,07,17,05,08,15.30
2018,07,17,05,09,15.30
2018,07,17,05,10,15.30
2018,07,17,05,11,15.30
2018,07,17,05,12,15.20
2018,07,17,05,13,15.20
2018,07,17,05,14,15.20
2018,07,17,05,15,15.20
2018,07,17,05,16,15.20
2018,07,17,05,17,15.20
2018,07,17,05,18,15.20
2018,07,17,05,19,15.20
2018,07,17,05,20,15.20
2018,07,17,05,21,15.30
2018,07,17,05,22,15.30
2018,07,17,05,23,15.30
2018,07,17,05,24,15.30
2018,07,17,05,25,15.30
2018,07,17,05,26,15.30
2018,07,17,05,27,15.30
2018,07,17,05,28,15.30
2018,07,17,05,29,15.30
2018,07,17,05,30,15.30
2018,07,17,05,31,15.30
2018,07,17,05,32,15.30
2018,07,17,05,33,15.30
2018,07,17,05,34,15.20
2018,07,17,05,35,15.20
2018,07,17,05,36,15.10
2018,07,17,05,37,15.10
2018,07,17,05,38,15.00
2018,07,17,05,39,15.00
2018,07,17,05,40,15.00
2018,07,17,05,41,15.00
2018,07,17,05,42,15.00
2018,07,17,05,43,15.00
2018,07,17,05,44,14.90
2018,07,17,05,45,14.80
2018,07,17,05,46,14.80
2018,07,17,05,47,14.80
2018,07,17,05,48,14.80
2018,07,17,05,49,14.70
2018,07,17,05,50,14.70
2018,07,17,05,51,14.70
2018,07,17,05,52,14.70
2018,07,17,05,53,14.70
2018,07,17,05,54,14.70
2018,07,17,05,55,14.70
2018,07,17,05,56,14.70
2018,07,17,05,57,14.70
2018,07,17,05,58,14.70
2018,07,17,05,59,14.70
2018,07,17,06,00,14.70
2018,07,17,06,01,14.70
2018,07,17,06,02,14.70
2018,07,17,06,03,14.70
2018,07,17,06,04,14.70
2018,07,17,06,05,14.80
2018,07,17,06,06,14.80
2018,07,17,06,07,14.80
2018,07,17,06,08,14.80
2018,07,17,06,09,14.80
2018,07,17,06,10,14.80
2018,07,17,06,11,14.80
2018,07,17,06,12,14.80
2018,07,17,06,13,14.90
2018,07,17,06,14,14.90
2018,07,17,06,15,15.00
2018,07,17,06,16,15.00
2018,07,17,06,17,15.00
2018,07,17,06,18,15.00
2018,07,17,06,19,15.00
2018,07,17,06,20,15.00
2018,07,17,06,21,15.00
2018,07,17,06,22,15.00
2018,07,17,06,23,15.10
2018,07,17,06,24,15.10
2018,07,17,06,25,15.20
2018,07,17,06,26,15.20
2018,07,17,06,27,15.20
2018,07,17,06,28,15.30
2018,07,17,06,29,15.30
2018,07,17,06,30,15.30
2018,07,17,06,31,15.30
2018,07,17,06,32,15.40
2018,07,17,06,33,15.40
2018,07,17,06,34,15.40
2018,07,17,06,35,15.40
2018,07,17,06,36,15.50
2018,07,17,06,37,15.50
2018,07,17,06,38,15.50
2018,07,17,06,39,15.60
2018,07,17,06,40,15.60
2018,07,17,06,41,15.60
2018,07,17,06,42,15.60
2018,07,17,06,43,15.70
2018,07,17,06,44,15.70
2018,07,17,06,45,15.70
2018,07,17,06,46,15.80
2018,07,17,06,47,15.80
2018,07,17,06,48,15.80
2018,07,17,06,49,15.80
2018,07,17,06,50,15.90
2018,07,17,06,51,15.90
2018,07,17,06,52,16.00
2018,07,17,06,53,16.00
2018,07,17,06,54,16.10
2018,07,17,06,55,16.10
2018,07,17,06,56,16.10
2018,07,17,06,57,16.20
2018,07,17,06,58,16.20
2018,07,17,06,59,16.20
2018,07,17,07,00,16.20
2018,07,17,07,01,16.30
2018,07,17,07,02,16.30
2018,07,17,07,03,16.30
2018,07,17,07,04,16.30
2018,07,17,07,05,16.30
2018,07,17,07,06,16.30
2018,07,17,07,07,16.30
2018,07,17,07,08,16.30
2018,07,17,07,09,16.30
2018,07,17,07,10,16.30
2018,07,17,07,11,16.40
2018,07,17,07,12,16.40
2018,07,17,07,13,16.40
2018,07,17,07,14,16.40
2018,07,17,07,15,16.50
2018,07,17,07,16,16.50
2018,07,17,07,17,16.50
2018,07,17,07,18,16.50
2018,07,17,07,19,16.60
2018,07,17,07,20,16.60
2018,07,17,07,21,16.60
2018,07,17,07,22,16.60
2018,07,17,07,23,16.60
2018,07,17,07,24,16.60
2018,07,17,07,25,16.60
2018,07,17,07,26,16.60
2018,07,17,07,27,16.60
2018,07,17,07,28,16.60
2018,07,17,07,29,16.60
2018,07,17,07,30,16.60
2018,07,17,07,31,16.70
2018,07,17,07,32,16.70
2018,07,17,07,33,16.70
2018,07,17,07,34,16.70
2018,07,17,07,35,16.70
2018,07,17,07,36,16.70
2018,07,17,07,37,16.70
2018,07,17,07,38,16.80
2018,07,17,07,39,16.90
2018,07,17,07,40,16.90
2018,07,17,07,41,17.00
2018,07,17,07,42,17.10
2018,07,17,07,43,17.10
2018,07,17,07,44,17.10
2018,07,17,07,45,17.20
2018,07,17,07,46,17.20
2018,07,17,07,47,17.30
2018,07,17,07,48,17.30
2018,07,17,07,49,17.30
2018,07,17,07,50,17.30
2018,07,17,07,51,17.40
2018,07,17,07,52,17.40
2018,07,17,07,53,17.40
2018,07,17,07,54,17.40
2018,07,17,07,55,17.50
2018,07,17,07,56,17.50
2018,07,17,07,57,17.60
2018,07,17,07,58,17.60
2018,07,17,07,59,17.70
2018,07,17,08,00,17.70
2018,07,17,08,01,17.70
2018,07,17,08,02,17.80
2018,07,17,08,03,17.90
2018,07,17,08,04,18.00
2018,07,17,08,05,18.00
2018,07,17,08,06,18.10
2018,07,17,08,07,18.20
2018,07,17,08,08,18.20
2018,07,17,08,09,18.20
2018,07,17,08,10,18.20
2018,07,17,08,11,18.20
2018,07,17,08,12,18.20
2018,07,17,08,13,18.30
2018,07,17,08,14,18.30
2018,07,17,08,15,18.30
2018,07,17,08,16,18.40
2018,07,17,08,17,18.40
2018,07,17,08,18,18.40
2018,07,17,08,19,18.50
2018,07,17,08,20,18.50
2018,07,17,08,21,18.60
2018,07,17,08,22,18.60
2018,07,17,08,23,18.60
2018,07,17,08,24,18.70
2018,07,17,08,25,18.70
2018,07,17,08,26,18.70
2018,07,17,08,27,18.80
2018,07,17,08,28,18.80
2018,07,17,08,29,18.90
2018,07,17,08,30,19.00
2018,07,17,08,31,19.00
2018,07,17,08,32,19.10
2018,07,17,08,33,19.20
2018,07,17,08,34,19.30
2018,07,17,08,35,19.30
2018,07,17,08,36,19.40
2018,07,17,08,37,19.50
2018,07,17,08,38,19.50
2018,07,17,08,39,19.60
2018,07,17,08,40,19.60
2018,07,17,08,41,19.60
2018,07,17,08,42,19.70
2018,07,17,08,43,19.70
2018,07,17,08,44,19.70
2018,07,17,08,45,19.70
2018,07,17,08,46,19.80
2018,07,17,08,47,19.80
2018,07,17,08,48,19.90
2018,07,17,08,49,19.90
2018,07,17,08,50,20.00
2018,07,17,08,51,20.10
2018,07,17,08,52,20.10
2018,07,17,08,53,20.20
2018,07,17,08,54,20.20
2018,07,17,08,55,20.30
2018,07,17,08,56,20.30
2018,07,17,08,57,20.40
2018,07,17,08,58,20.40
2018,07,17,08,59,20.50
2018,07,17,09,00,20.60
2018,07,17,09,01,20.60
2018,07,17,09,02,20.70
2018,07,17,09,03,20.70
2018,07,17,09,04,20.80
2018,07,17,09,05,20.80
2018,07,17,09,06,20.90
2018,07,17,09,07,20.90
2018,07,17,09,08,20.90
2018,07,17,09,09,21.00
2018,07,17,09,10,21.00
2018,07,17,09,11,21.00
2018,07,17,09,12,21.00
2018,07,17,09,13,21.10
2018,07,17,09,14,21.10
2018,07,17,09,15,21.20
2018,07,17,09,16,21.20
2018,07,17,09,17,21.20
2018,07,17,09,18,21.30
2018,07,17,09,19,21.30
2018,07,17,09,20,21.30
2018,07,17,09,21,21.40
2018,07,17,09,22,21.40
2018,07,17,09,23,21.40
2018,07,17,09,24,21.40
2018,07,17,09,25,21.40
2018,07,17,09,26,21.50
2018,07,17,09,27,21.50
2018,07,17,09,28,21.50
2018,07,17,09,29,21.60
2018,07,17,09,30,21.60
2018,07,17,09,31,21.70
2018,07,17,09,32,21.70
2018,07,17,09,33,21.70
2018,07,17,09,34,21.70
2018,07,17,09,35,21.70
2018,07,17,09,36,21.80
2018,07,17,09,37,21.80
2018,07,17,09,38,21.80
2018,07,17,09,39,21.80
2018,07,17,09,40,21.70
2018,07,17,09,41,21.70
2018,07,17,09,42,21.70
2018,07,17,09,43,21.70
2018,07,17,09,44,21.70
2018,07,17,09,45,21.60
2018,07,17,09,46,21.60
2018,07,17,09,47,21.60
2018,07,17,09,48,21.70
2018,07,17,09,49,21.70
2018,07,17,09,50,21.70
2018,07,17,09,51,21.70
2018,07,17,09,52,21.70
2018,07,17,09,53,21.80
2018,07,17,09,54,21.80
2018,07,17,09,55,21.80
2018,07,17,09,56,21.90
2018,07,17,09,57,21.90
2018,07,17,09,58,21.90
2018,07,17,09,59,22.00
2018,07,17,10,00,22.00
2018,07,17,10,01,22.10
2018,07,17,10,02,22.10
2018,07,17,10,03,22.10
2018,07,17,10,04,22.20
2018,07,17,10,05,22.20
2018,07,17,10,06,22.20
2018,07,17,10,07,22.30
2018,07,17,10,08,22.30
2018,07,17,10,09,22.30
2018,07,17,10,10,22.30
2018,07,17,10,11,22.30
2018,07,17,10,12,22.30
2018,07,17,10,13,22.40
2018,07,17,10,14,22.40
2018,07,17,10,15,22.40
2018,07,17,10,16,22.40
2018,07,17,10,17,22.50
2018,07,17,10,18,22.50
2018,07,17,10,19,22.50
2018,07,17,10,20,22.60
2018,07,17,10,21,22.60
2018,07,17,10,22,22.60
2018,07,17,10,23,22.60
2018,07,17,10,24,22.60
2018,07,17,10,25,22.60
2018,07,17,10,26,22.60
2018,07,17,10,27,22.60
2018,07,17,10,28,22.60
2018,07,17,10,29,22.60
2018,07,17,10,30,22.50
2018,07,17,10,31,22.50
2018,07,17,10,32,22.40
2018,07,17,10,33,22.40
2018,07,17,10,34,22.30
2018,07,17,10,35,22.30
2018,07,17,10,36,22.30
2018,07,17,10,37,22.20
2018,07,17,10,38,22.20
2018,07,17,10,39,22.10
2018,07,17,10,40,22.10
2018,07,17,10,41,22.10
2018,07,17,10,42,22.00
2018,07,17,10,43,21.90
2018,07,17,10,44,21.90
2018,07,17,10,45,21.90
2018,07,17,10,46,21.90
2018,07,17,10,47,21.90
2018,07,17,10,48,21.90
2018,07,17,10,49,21.90
2018,07,17,10,50,21.90
2018,07,17,10,51,21.90
2018,07,17,10,52,21.90
2018,07,17,10,53,21.90
2018,07,17,10,54,21.90
2018,07,17,10,55,21.90
2018,07,17,10,56,21.90
2018,07,17,10,57,21.90
2018,07,17,10,58,22.00
2018,07,17,10,59,22.00
2018,07,17,11,00,22.10
2018,07,17,11,01,22.10
2018,07,17,11,02,22.20
2018,07,17,11,03,22.20
2018,07,17,11,04,22.30
2018,07,17,11,05,22.30
2018,07,17,11,06,22.30
2018,07,17,11,07,22.30
2018,07,17,11,08,22.20
2018,07,17,11,09,22.20
2018,07,17,11,10,22.20
2018,07,17,11,11,22.20
2018,07,17,11,12,22.20
2018,07,17,11,13,22.30
2018,07,17,11,14,22.30
2018,07,17,11,15,22.40
2018,07,17,11,16,22.50
2018,07,17,11,17,22.60
2018,07,17,11,18,22.70
2018,07,17,11,19,22.70
2018,07,17,11,20,22.80
2018,07,17,11,21,22.80
2018,07,17,11,22,22.80
2018,07,17,11,23,22.80
2018,07,17,11,24,22.80
2018,07,17,11,25,22.80
2018,07,17,11,26,22.80
2018,07,17,11,27,22.70
2018,07,17,11,28,22.70
2018,07,17,11,29,22.70
2018,07,17,11,30,22.70
2018,07,17,11,31,22.80
2018,07,17,11,32,22.80
2018,07,17,11,33,22.80
2018,07,17,11,34,22.90
2018,07,17,11,35,23.00
2018,07,17,11,36,23.00
2018,07,17,11,37,22.90
2018,07,17,11,38,22.90
2018,07,17,11,39,22.90
2018,07,17,11,40,22.90
2018,07,17,11,41,22.90
2018,07,17,11,42,22.90
2018,07,17,11,43,22.90
2018,07,17,11,44,22.90
2018,07,17,11,45,23.00
2018,07,17,11,46,23.10
2018,07,17,11,47,23.10
2018,07,17,11,48,23.20
2018,07,17,11,49,23.20
2018,07,17,11,50,23.30
2018,07,17,11,51,23.40
2018,07,17,11,52,23.50
2018,07,17,11,53,23.50
2018,07,17,11,54,23.50
2018,07,17,11,55,23.50
2018,07,17,11,56,23.50
2018,07,17,11,57,23.50
2018,07,17,11,58,23.60
2018,07,17,11,59,23.60
2018,07,17,12,00,23.60
2018,07,17,12,01,23.70
2018,07,17,12,02,23.70
2018,07,17,12,03,23.80
2018,07,17,12,04,23.80
2018,07,17,12,05,23.80
2018,07,17,12,06,23.80
2018,07,17,12,07,23.70
2018,07,17,12,08,23.60
2018,07,17,12,09,23.40
2018,07,17,12,10,23.30
2018,07,17,12,11,23.20
2018,07,17,12,12,23.20
2018,07,17,12,13,23.20
2018,07,17,12,14,23.20
2018,07,17,12,15,23.20
2018,07,17,12,16,23.20
2018,07,17,12,17,23.20
2018,07,17,12,18,23.20
2018,07,17,12,19,23.20
2018,07,17,12,20,23.20
2018,07,17,12,21,23.20
2018,07,17,12,22,23.20
2018,07,17,12,23,23.10
2018,07,17,12,24,23.10
2018,07,17,12,25,23.10
2018,07,17,12,26,23.10
2018,07,17,12,27,23.10
2018,07,17,12,28,23.20
2018,07,17,12,29,23.20
2018,07,17,12,30,23.30
2018,07,17,12,31,23.30
2018,07,17,12,32,23.30
2018,07,17,12,33,23.30
2018,07,17,12,34,23.30
2018,07,17,12,35,23.30
2018,07,17,12,36,23.20
2018,07,17,12,37,23.10
2018,07,17,12,38,23.10
2018,07,17,12,39,23.10
2018,07,17,12,40,23.10
2018,07,17,12,41,23.20
2018,07,17,12,42,23.30
2018,07,17,12,43,23.40
2018,07,17,12,44,23.60
2018,07,17,12,45,23.70
2018,07,17,12,46,23.90
2018,07,17,12,47,24.10
2018,07,17,12,48,24.20
2018,07,17,12,49,24.30
2018,07,17,12,50,24.40
2018,07,17,12,51,24.50
2018,07,17,12,52,24.60
2018,07,17,12,53,24.50
2018,07,17,12,54,24.50
2018,07,17,12,55,24.40
2018,07,17,12,56,24.30
2018,07,17,12,57,24.30
2018,07,17,12,58,24.20
2018,07,17,12,59,24.20
2018,07,17,13,00,24.20
2018,07,17,13,01,24.20
2018,07,17,13,02,24.40
2018,07,17,13,03,24.70
2018,07,17,13,04,25.00
2018,07,17,13,05,25.30
2018,07,17,13,06,25.60
2018,07,17,13,07,25.90
2018,07,17,13,08,26.10
2018,07,17,13,09,26.30
2018,07,17,13,10,26.40
2018,07,17,13,11,26.50
2018,07,17,13,12,26.70
2018,07,17,13,13,26.80
2018,07,17,13,14,26.90
2018,07,17,13,15,27.00
2018,07,17,13,16,27.20
2018,07,17,13,17,27.30
2018,07,17,13,18,27.30
2018,07,17,13,19,27.40
2018,07,17,13,20,27.50
2018,07,17,13,21,27.60
2018,07,17,13,22,27.70
2018,07,17,13,23,27.70
2018,07,17,13,24,27.80
2018,07,17,13,25,27.90
2018,07,17,13,26,28.00
2018,07,17,13,27,28.10
2018,07,17,13,28,28.10
2018,07,17,13,29,27.90
2018,07,17,13,30,27.60
2018,07,17,13,31,27.50
2018,07,17,13,32,27.40
2018,07,17,13,33,27.40
2018,07,17,13,34,27.50
2018,07,17,13,35,27.60
2018,07,17,13,36,27.70
2018,07,17,13,37,27.80
2018,07,17,13,38,27.80
2018,07,17,13,39,27.80
2018,07,17,13,40,27.80
2018,07,17,13,41,27.80
2018,07,17,13,42,27.90
2018,07,17,13,43,27.90
2018,07,17,13,44,27.80
2018,07,17,13,45,27.80
2018,07,17,13,46,27.80
2018,07,17,13,47,27.80
2018,07,17,13,48,27.90
2018,07,17,13,49,27.90
2018,07,17,13,50,28.00
2018,07,17,13,51,27.90
2018,07,17,13,52,27.80
2018,07,17,13,53,27.60
2018,07,17,13,54,27.60
2018,07,17,13,55,27.50
2018,07,17,13,56,27.50
2018,07,17,13,57,27.40
2018,07,17,13,58,27.30
2018,07,17,13,59,27.30
2018,07,17,14,00,27.30
2018,07,17,14,01,27.30
2018,07,17,14,02,27.20
2018,07,17,14,03,27.20
2018,07,17,14,04,27.30
2018,07,17,14,05,27.30
2018,07,17,14,06,27.40
2018,07,17,14,07,27.40
2018,07,17,14,08,27.40
2018,07,17,14,09,27.50
2018,07,17,14,10,27.60
2018,07,17,14,11,27.70
2018,07,17,14,12,27.80
2018,07,17,14,13,27.90
2018,07,17,14,14,28.00
2018,07,17,14,15,28.10
2018,07,17,14,16,28.10
2018,07,17,14,17,28.20
2018,07,17,14,18,28.20
2018,07,17,14,19,28.20
2018,07,17,14,20,28.30
2018,07,17,14,21,28.30
2018,07,17,14,22,28.40
2018,07,17,14,23,28.40
2018,07,17,14,24,28.40
2018,07,17,14,25,28.30
2018,07,17,14,26,28.30
2018,07,17,14,27,28.20
2018,07,17,14,28,28.20
2018,07,17,14,29,28.20
2018,07,17,14,30,28.20
2018,07,17,14,31,28.20
2018,07,17,14,32,28.20
2018,07,17,14,33,28.20
2018,07,17,14,34,28.10
2018,07,17,14,35,28.10
2018,07,17,14,36,28.10
2018,07,17,14,37,28.10
2018,07,17,14,38,28.20
2018,07,17,14,39,28.30
2018,07,17,14,40,28.30
2018,07,17,14,41,28.30
2018,07,17,14,42,28.40
2018,07,17,14,43,28.40
2018,07,17,14,44,28.40
2018,07,17,14,45,28.40
2018,07,17,14,46,28.30
2018,07,17,14,47,28.30
2018,07,17,14,48,28.20
2018,07,17,14,49,28.10
2018,07,17,14,50,28.10
2018,07,17,14,51,28.10
2018,07,17,14,52,28.10
2018,07,17,14,53,28.20
2018,07,17,14,54,28.20
2018,07,17,14,55,28.20
2018,07,17,14,56,28.20
2018,07,17,14,57,28.20
2018,07,17,14,58,28.20
2018,07,17,14,59,28.10
2018,07,17,15,00,28.10
2018,07,17,15,01,28.10
2018,07,17,15,02,28.10
2018,07,17,15,03,28.10
2018,07,17,15,04,28.10
2018,07,17,15,05,28.00
2018,07,17,15,06,27.90
2018,07,17,15,07,27.90
2018,07,17,15,08,28.00
2018,07,17,15,09,28.00
2018,07,17,15,10,28.00
2018,07,17,15,11,28.10
2018,07,17,15,12,28.20
2018,07,17,15,13,28.20
2018,07,17,15,14,28.30
2018,07,17,15,15,28.40
2018,07,17,15,16,28.50
2018,07,17,15,17,28.50
2018,07,17,15,18,28.50
2018,07,17,15,19,28.50
2018,07,17,15,20,28.40
2018,07,17,15,21,28.40
2018,07,17,15,22,28.50
2018,07,17,15,23,28.50
2018,07,17,15,24,28.60
2018,07,17,15,25,28.60
2018,07,17,15,26,28.60
2018,07,17,15,27,28.60
2018,07,17,15,28,28.60
2018,07,17,15,29,28.50
2018,07,17,15,30,28.50
2018,07,17,15,31,28.50
2018,07,17,15,32,28.60
2018,07,17,15,33,28.60
2018,07,17,15,34,28.60
2018,07,17,15,35,28.70
2018,07,17,15,36,28.70
2018,07,17,15,37,28.80
2018,07,17,15,38,28.80
2018,07,17,15,39,28.80
2018,07,17,15,40,28.80
2018,07,17,15,41,28.80
2018,07,17,15,42,28.70
2018,07,17,15,43,28.70
2018,07,17,15,44,28.70
2018,07,17,15,45,28.70
2018,07,17,15,46,28.60
2018,07,17,15,47,28.60
2018,07,17,15,48,28.70
2018,07,17,15,49,28.70
2018,07,17,15,50,28.70
2018,07,17,15,51,28.60
2018,07,17,15,52,28.60
2018,07,17,15,53,28.60
2018,07,17,15,54,28.50
2018,07,17,15,55,28.50
2018,07,17,15,56,28.60
2018,07,17,15,57,28.60
2018,07,17,15,58,28.60
2018,07,17,15,59,28.70
2018,07,17,16,00,28.60
2018,07,17,16,01,28.70
2018,07,17,16,02,28.70
2018,07,17,16,03,28.70
2018,07,17,16,04,28.70
2018,07,17,16,05,28.70
2018,07,17,16,06,28.70
2018,07,17,16,07,28.70
2018,07,17,16,08,28.70
2018,07,17,16,09,28.60
2018,07,17,16,10,28.60
2018,07,17,16,11,28.60
2018,07,17,16,12,28.50
2018,07,17,16,13,28.50
2018,07,17,16,14,28.50
2018,07,17,16,15,28.50
2018,07,17,16,16,28.50
2018,07,17,16,17,28.60
2018,07,17,16,18,28.60
2018,07,17,16,19,28.60
2018,07,17,16,20,28.60
2018,07,17,16,21,28.60
2018,07,17,16,22,28.50
2018,07,17,16,23,28.50
2018,07,17,16,24,28.40
2018,07,17,16,25,28.50
2018,07,17,16,26,28.50
2018,07,17,16,27,28.60
2018,07,17,16,28,28.70
2018,07,17,16,29,28.70
2018,07,17,16,30,28.70
2018,07,17,16,31,28.70
2018,07,17,16,32,28.70
2018,07,17,16,33,28.70
2018,07,17,16,34,28.60
2018,07,17,16,35,28.50
2018,07,17,16,36,28.50
2018,07,17,16,37,28.40
2018,07,17,16,38,28.50
2018,07,17,16,39,28.50
2018,07,17,16,40,28.60
2018,07,17,16,41,28.60
2018,07,17,16,42,28.60
2018,07,17,16,43,28.60
2018,07,17,16,44,28.60
2018,07,17,16,45,28.70
2018,07,17,16,46,28.70
2018,07,17,16,47,28.70
2018,07,17,16,48,28.70
2018,07,17,16,49,28.80
2018,07,17,16,50,28.80
2018,07,17,16,51,28.80
2018,07,17,16,52,28.80
2018,07,17,16,53,28.80
2018,07,17,16,54,28.80
2018,07,17,16,55,28.80
2018,07,17,16,56,28.70
2018,07,17,16,57,28.70
2018,07,17,16,58,28.70
2018,07,17,16,59,28.80
2018,07,17,17,00,28.80
2018,07,17,17,01,28.70
2018,07,17,17,02,28.60
2018,07,17,17,03,28.60
2018,07,17,17,04,28.60
2018,07,17,17,05,28.60
2018,07,17,17,06,28.60
2018,07,17,17,07,28.60
2018,07,17,17,08,28.60
2018,07,17,17,09,28.60
2018,07,17,17,10,28.60
2018,07,17,17,11,28.50
2018,07,17,17,12,28.40
2018,07,17,17,13,28.40
2018,07,17,17,14,28.40
2018,07,17,17,15,28.30
2018,07,17,17,16,28.30
2018,07,17,17,17,28.20
2018,07,17,17,18,28.10
2018,07,17,17,19,28.10